Time,TemperatureF,DewpointF,PressureIn,WindDirection,WindDirectionDegrees,WindSpeedMPH,WindSpeedGustMPH,Humidity,HourlyPrecipIn,Conditions,Clouds,dailyrainin,SolarRadiationWatts/m^2,SoftwareType,DateUTC
2013-09-23 00:00:00,57.5,46.6,29.85,North,355,9.0,9.0,67,0.00,,,0.00,0,Wunderground v.1.15,2013-09-23 04:00:00,
2013-09-23 00:05:00,57.5,47.0,29.85,NNW,331,10.0,10.0,68,0.00,,,0.00,0,Wunderground v.1.15,2013-09-23 04:05:00,
2013-09-23 00:10:00,57.5,47.0,29.85,North,357,11.0,18.0,68,0.00,,,0.00,0,Wunderground v.1.15,2013-09-23 04:10:00,
2013-09-23 00:15:00,57.5,47.0,29.85,NNE,30,13.0,18.0,68,0.00,,,0.00,0,Wunderground v.1.15,2013-09-23 04:15:00,
2013-09-23 00:25:00,57.2,46.7,29.86,NNW,346,11.0,18.0,68,0.00,,,0.00,0,Wunderground v.1.15,2013-09-23 04:25:00,
2013-09-23 00:30:00,57.1,46.6,29.86,NW,321,11.0,14.0,68,0.00,,,0.00,0,Wunderground v.1.15,2013-09-23 04:30:00,
2013-09-23 00:40:00,56.9,46.8,29.86,North,352,11.0,15.0,69,0.00,,,0.00,0,Wunderground v.1.15,2013-09-23 04:40:00,
2013-09-23 00:45:00,56.8,46.7,29.86,North,350,11.0,15.0,69,0.00,,,0.00,0,Wunderground v.1.15,2013-09-23 04:45:00,
2013-09-23 00:55:00,56.8,46.3,29.86,NNE,31,13.0,21.0,68,0.00,,,0.00,0,Wunderground v.1.15,2013-09-23 04:55:00,
2013-09-23 01:00:00,56.8,46.3,29.86,North,355,13.0,18.0,68,0.00,,,0.00,0,Wunderground v.1.15,2013-09-23 05:00:00,
2013-09-23 01:10:00,56.7,46.6,29.87,North,357,11.0,11.0,69,0.00,,,0.00,0,Wunderground v.1.15,2013-09-23 05:10:00,
2013-09-23 01:20:00,56.5,46.4,29.87,NNW,336,10.0,11.0,69,0.00,,,0.00,0,Wunderground v.1.15,2013-09-23 05:20:00,
2013-09-23 01:30:00,56.4,46.4,29.86,North,11,12.0,12.0,69,0.00,,,0.00,0,Wunderground v.1.15,2013-09-23 05:30:00,
2013-09-23 01:40:00,56.2,46.9,29.87,North,352,10.0,14.0,71,0.00,,,0.00,0,Wunderground v.1.15,2013-09-23 05:40:00,
2013-09-23 01:45:00,56.1,46.8,29.87,North,355,10.0,15.0,71,0.00,,,0.00,0,Wunderground v.1.15,2013-09-23 05:45:00,
2013-09-23 01:55:00,56.0,46.7,29.88,North,2,11.0,11.0,71,0.00,,,0.00,0,Wunderground v.1.15,2013-09-23 05:55:00,
2013-09-23 02:00:00,55.9,47.0,29.88,North,358,11.0,16.0,72,0.00,,,0.00,0,Wunderground v.1.15,2013-09-23 06:00:00,
2013-09-23 02:10:00,55.7,46.8,29.88,NNE,22,9.0,9.0,72,0.00,,,0.00,0,Wunderground v.1.15,2013-09-23 06:10:00,
2013-09-23 02:20:00,55.6,47.1,29.88,North,359,10.0,17.0,73,0.00,,,0.00,0,Wunderground v.1.15,2013-09-23 06:20:00,
2013-09-23 02:30:00,55.6,47.1,29.88,NNW,344,10.0,10.0,73,0.00,,,0.00,0,Wunderground v.1.15,2013-09-23 06:30:00,
2013-09-23 02:35:00,55.5,47.0,29.88,North,350,10.0,13.0,73,0.00,,,0.00,0,Wunderground v.1.15,2013-09-23 06:35:00,
2013-09-23 02:45:00,55.3,46.8,29.88,NNE,13,10.0,10.0,73,0.00,,,0.00,0,Wunderground v.1.15,2013-09-23 06:45:00,
2013-09-23 02:55:00,55.1,46.6,29.88,NE,34,9.0,10.0,73,0.00,,,0.00,0,Wunderground v.1.15,2013-09-23 06:55:00,
2013-09-23 03:05:00,55.0,46.5,29.88,North,11,9.0,13.0,73,0.00,,,0.00,0,Wunderground v.1.15,2013-09-23 07:05:00,
2013-09-23 03:15:00,55.0,46.5,29.89,NNW,344,10.0,10.0,73,0.00,,,0.00,0,Wunderground v.1.15,2013-09-23 07:15:00,
2013-09-23 03:20:00,55.0,46.5,29.88,WNW,300,10.0,10.0,73,0.00,,,0.00,0,Wunderground v.1.15,2013-09-23 07:20:00,
2013-09-23 03:30:00,54.9,46.4,29.89,NNW,336,8.0,9.0,73,0.00,,,0.00,0,Wunderground v.1.15,2013-09-23 07:30:00,
2013-09-23 03:40:00,54.7,46.6,29.89,NE,38,7.0,7.0,74,0.00,,,0.00,0,Wunderground v.1.15,2013-09-23 07:40:00,
2013-09-23 03:50:00,54.7,46.2,29.89,North,359,7.0,7.0,73,0.00,,,0.00,0,Wunderground v.1.15,2013-09-23 07:50:00,
2013-09-23 04:00:00,54.6,46.1,29.89,North,354,7.0,7.0,73,0.00,,,0.00,0,Wunderground v.1.15,2013-09-23 08:00:00,
2013-09-23 04:05:00,54.6,45.8,29.89,North,8,7.0,7.0,72,0.00,,,0.00,0,Wunderground v.1.15,2013-09-23 08:05:00,
2013-09-23 04:15:00,54.6,45.8,29.89,North,356,8.0,11.0,72,0.00,,,0.00,0,Wunderground v.1.15,2013-09-23 08:15:00,
2013-09-23 04:25:00,54.6,45.8,29.90,NNW,346,7.0,8.0,72,0.00,,,0.00,0,Wunderground v.1.15,2013-09-23 08:25:00,
2013-09-23 04:35:00,54.4,45.9,29.90,North,6,8.0,12.0,73,0.00,,,0.00,0,Wunderground v.1.15,2013-09-23 08:35:00,
2013-09-23 04:45:00,54.2,45.7,29.90,NW,326,8.0,9.0,73,0.00,,,0.00,0,Wunderground v.1.15,2013-09-23 08:45:00,
2013-09-23 04:50:00,54.1,45.6,29.90,NNE,18,9.0,14.0,73,0.00,,,0.00,0,Wunderground v.1.15,2013-09-23 08:50:00,
2013-09-23 05:00:00,54.1,46.0,29.90,North,355,10.0,10.0,74,0.00,,,0.00,0,Wunderground v.1.15,2013-09-23 09:00:00,
2013-09-23 05:10:00,53.7,45.6,29.91,North,9,7.0,8.0,74,0.00,,,0.00,0,Wunderground v.1.15,2013-09-23 09:10:00,
2013-09-23 05:20:00,53.6,45.5,29.91,North,349,9.0,9.0,74,0.00,,,0.00,0,Wunderground v.1.15,2013-09-23 09:20:00,
2013-09-23 05:30:00,53.3,45.6,29.91,NNE,21,7.0,11.0,75,0.00,,,0.00,0,Wunderground v.1.15,2013-09-23 09:30:00,
2013-09-23 05:40:00,53.2,45.5,29.91,NNE,20,7.0,7.0,75,0.00,,,0.00,0,Wunderground v.1.15,2013-09-23 09:40:00,
2013-09-23 05:45:00,53.1,45.4,29.91,NNW,345,8.0,8.0,75,0.00,,,0.00,0,Wunderground v.1.15,2013-09-23 09:45:00,
2013-09-23 05:55:00,53.0,45.3,29.92,NNW,346,7.0,8.0,75,0.00,,,0.00,0,Wunderground v.1.15,2013-09-23 09:55:00,
2013-09-23 06:05:00,53.0,45.3,29.92,NNE,26,7.0,8.0,75,0.00,,,0.00,0,Wunderground v.1.15,2013-09-23 10:05:00,
2013-09-23 06:15:00,53.0,45.3,29.93,NNE,30,7.0,7.0,75,0.00,,,0.00,0,Wunderground v.1.15,2013-09-23 10:15:00,
2013-09-23 06:20:00,53.1,45.4,29.93,NNE,20,8.0,14.0,75,0.00,,,0.00,0,Wunderground v.1.15,2013-09-23 10:20:00,
2013-09-23 06:30:00,53.0,45.3,29.93,North,3,8.0,9.0,75,0.00,,,0.00,0,Wunderground v.1.15,2013-09-23 10:30:00,
2013-09-23 06:40:00,53.0,45.3,29.93,North,2,8.0,8.0,75,0.00,,,0.00,7,Wunderground v.1.15,2013-09-23 10:40:00,
2013-09-23 06:45:00,52.9,45.2,29.94,North,351,7.0,8.0,75,0.00,,,0.00,9,Wunderground v.1.15,2013-09-23 10:45:00,
2013-09-23 06:55:00,52.9,45.2,29.94,North,7,8.0,11.0,75,0.00,,,0.00,14,Wunderground v.1.15,2013-09-23 10:55:00,
2013-09-23 07:00:00,53.1,45.4,29.94,North,354,9.0,9.0,75,0.00,,,0.00,19,Wunderground v.1.15,2013-09-23 11:00:00,
2013-09-23 07:10:00,53.4,45.7,29.95,NNW,340,7.0,8.0,75,0.00,,,0.00,40,Wunderground v.1.15,2013-09-23 11:10:00,
2013-09-23 07:15:00,53.5,45.8,29.94,North,1,7.0,8.0,75,0.00,,,0.00,54,Wunderground v.1.15,2013-09-23 11:15:00,
2013-09-23 07:25:00,53.8,45.7,29.95,NNE,22,8.0,8.0,74,0.00,,,0.00,88,Wunderground v.1.15,2013-09-23 11:25:00,
2013-09-23 07:35:00,54.0,45.9,29.95,NNW,343,8.0,8.0,74,0.00,,,0.00,123,Wunderground v.1.15,2013-09-23 11:35:00,
2013-09-23 07:45:00,54.4,46.3,29.95,NE,36,8.0,12.0,74,0.00,,,0.00,165,Wunderground v.1.15,2013-09-23 11:45:00,
2013-09-23 07:55:00,54.7,46.2,29.95,NNE,13,9.0,9.0,73,0.00,,,0.00,207,Wunderground v.1.15,2013-09-23 11:55:00,
2013-09-23 08:05:00,55.0,46.5,29.95,NNE,16,8.0,8.0,73,0.00,,,0.00,251,Wunderground v.1.15,2013-09-23 12:05:00,
2013-09-23 08:15:00,55.5,46.6,29.95,NNE,15,7.0,16.0,72,0.00,,,0.00,109,Wunderground v.1.15,2013-09-23 12:15:00,
2013-09-23 08:25:00,55.4,46.2,29.96,NNW,342,8.0,10.0,71,0.00,,,0.00,35,Wunderground v.1.15,2013-09-23 12:25:00,
2013-09-23 08:35:00,55.5,46.2,29.96,North,359,8.0,11.0,71,0.00,,,0.00,348,Wunderground v.1.15,2013-09-23 12:35:00,
2013-09-23 08:45:00,56.2,46.5,29.96,North,359,8.0,8.0,70,0.00,,,0.00,378,Wunderground v.1.15,2013-09-23 12:45:00,
2013-09-23 08:55:00,56.5,46.4,29.95,NNE,15,8.0,8.0,69,0.00,,,0.00,408,Wunderground v.1.15,2013-09-23 12:55:00,
2013-09-23 09:05:00,56.1,45.7,29.95,NNE,15,10.0,12.0,68,0.00,,,0.00,438,Wunderground v.1.15,2013-09-23 13:05:00,
2013-09-23 09:15:00,56.3,45.9,29.96,NNW,346,11.0,17.0,68,0.00,,,0.00,461,Wunderground v.1.15,2013-09-23 13:15:00,
2013-09-23 09:25:00,56.7,46.3,29.96,NNE,12,11.0,13.0,68,0.00,,,0.00,494,Wunderground v.1.15,2013-09-23 13:25:00,
2013-09-23 09:35:00,57.3,46.8,29.96,WNW,300,10.0,10.0,68,0.00,,,0.00,522,Wunderground v.1.15,2013-09-23 13:35:00,
2013-09-23 09:45:00,57.6,46.7,29.95,WNW,299,8.0,9.0,67,0.00,,,0.00,547,Wunderground v.1.15,2013-09-23 13:45:00,
2013-09-23 09:50:00,57.8,47.3,29.95,NNW,342,7.0,7.0,68,0.00,,,0.00,564,Wunderground v.1.15,2013-09-23 13:50:00,
2013-09-23 09:55:00,57.9,46.6,29.95,North,7,7.0,8.0,66,0.00,,,0.00,575,Wunderground v.1.15,2013-09-23 13:55:00,
2013-09-23 10:05:00,57.6,47.1,29.95,North,355,11.0,11.0,68,0.00,,,0.00,598,Wunderground v.1.15,2013-09-23 14:05:00,
2013-09-23 10:10:00,58.1,47.2,29.95,NNW,340,9.0,13.0,67,0.00,,,0.00,608,Wunderground v.1.15,2013-09-23 14:10:00,
2013-09-23 10:20:00,58.5,47.2,29.95,NW,314,9.0,11.0,66,0.00,,,0.00,631,Wunderground v.1.15,2013-09-23 14:20:00,
2013-09-23 10:25:00,58.5,47.2,29.95,North,11,8.0,11.0,66,0.00,,,0.00,642,Wunderground v.1.15,2013-09-23 14:25:00,
2013-09-23 10:35:00,58.4,46.7,29.95,NNW,344,9.0,13.0,65,0.00,,,0.00,663,Wunderground v.1.15,2013-09-23 14:35:00,
2013-09-23 10:45:00,58.2,46.5,29.95,North,3,11.0,13.0,65,0.00,,,0.00,684,Wunderground v.1.15,2013-09-23 14:45:00,
2013-09-23 10:50:00,58.7,47.0,29.95,NW,326,10.0,10.0,65,0.00,,,0.00,691,Wunderground v.1.15,2013-09-23 14:50:00,
2013-09-23 11:00:00,58.4,46.7,29.95,NE,40,10.0,10.0,65,0.00,,,0.00,705,Wunderground v.1.15,2013-09-23 15:00:00,
2013-09-23 11:10:00,58.8,46.6,29.95,NNW,346,10.0,13.0,64,0.00,,,0.00,721,Wunderground v.1.15,2013-09-23 15:10:00,
2013-09-23 11:20:00,59.3,47.1,29.95,North,5,10.0,10.0,64,0.00,,,0.00,738,Wunderground v.1.15,2013-09-23 15:20:00,
2013-09-23 11:30:00,59.5,46.9,29.95,WNW,288,9.0,12.0,63,0.00,,,0.00,747,Wunderground v.1.15,2013-09-23 15:30:00,
2013-09-23 11:35:00,59.8,47.6,29.95,NNW,346,9.0,12.0,64,0.00,,,0.00,751,Wunderground v.1.15,2013-09-23 15:35:00,
2013-09-23 11:45:00,59.8,47.6,29.95,NNW,331,10.0,13.0,64,0.00,,,0.00,763,Wunderground v.1.15,2013-09-23 15:45:00,
2013-09-23 11:55:00,59.8,46.7,29.95,NE,35,9.0,10.0,62,0.00,,,0.00,775,Wunderground v.1.15,2013-09-23 15:55:00,
2013-09-23 12:05:00,60.6,47.9,29.95,NW,320,8.0,16.0,63,0.00,,,0.00,779,Wunderground v.1.15,2013-09-23 16:05:00,
2013-09-23 12:10:00,60.5,47.4,29.95,NW,311,9.0,9.0,62,0.00,,,0.00,782,Wunderground v.1.15,2013-09-23 16:10:00,
2013-09-23 12:20:00,60.9,47.4,29.95,West,278,10.0,12.0,61,0.00,,,0.00,784,Wunderground v.1.15,2013-09-23 16:20:00,
2013-09-23 12:25:00,60.8,47.3,29.95,NNW,342,10.0,12.0,61,0.00,,,0.00,791,Wunderground v.1.15,2013-09-23 16:25:00,
2013-09-23 12:35:00,60.9,47.8,29.95,NNW,340,9.0,10.0,62,0.00,,,0.00,803,Wunderground v.1.15,2013-09-23 16:35:00,
2013-09-23 12:45:00,61.0,48.3,29.94,NNW,331,9.0,12.0,63,0.00,,,0.00,789,Wunderground v.1.15,2013-09-23 16:45:00,
2013-09-23 12:55:00,60.6,47.9,29.95,NNE,13,11.0,11.0,63,0.00,,,0.00,788,Wunderground v.1.15,2013-09-23 16:55:00,
2013-09-23 13:00:00,60.9,48.2,29.94,NW,326,11.0,11.0,63,0.00,,,0.00,786,Wunderground v.1.15,2013-09-23 17:00:00,
2013-09-23 13:10:00,61.8,49.1,29.94,NNW,340,9.0,11.0,63,0.00,,,0.00,779,Wunderground v.1.15,2013-09-23 17:10:00,
2013-09-23 13:20:00,62.4,48.8,29.94,NNW,336,8.0,8.0,61,0.00,,,0.00,775,Wunderground v.1.15,2013-09-23 17:20:00,
2013-09-23 13:30:00,62.8,48.7,29.94,NW,316,7.0,7.0,60,0.00,,,0.00,766,Wunderground v.1.15,2013-09-23 17:30:00,
2013-09-23 13:40:00,63.1,48.5,29.93,NW,307,9.0,15.0,59,0.00,,,0.00,759,Wunderground v.1.15,2013-09-23 17:40:00,
2013-09-23 13:50:00,63.2,48.2,29.93,North,355,10.0,10.0,58,0.00,,,0.00,747,Wunderground v.1.15,2013-09-23 17:50:00,
2013-09-23 13:55:00,63.3,48.7,29.94,NNW,336,9.0,10.0,59,0.00,,,0.00,744,Wunderground v.1.15,2013-09-23 17:55:00,
2013-09-23 14:00:00,63.2,48.2,29.94,NNW,343,9.0,10.0,58,0.00,,,0.00,737,Wunderground v.1.15,2013-09-23 18:00:00,
2013-09-23 14:10:00,63.2,48.2,29.94,NW,307,10.0,10.0,58,0.00,,,0.00,724,Wunderground v.1.15,2013-09-23 18:10:00,
2013-09-23 14:15:00,63.6,49.0,29.93,NW,326,9.0,12.0,59,0.00,,,0.00,715,Wunderground v.1.15,2013-09-23 18:15:00,
2013-09-23 14:25:00,64.2,49.1,29.94,NNW,340,9.0,9.0,58,0.00,,,0.00,701,Wunderground v.1.15,2013-09-23 18:25:00,
2013-09-23 14:35:00,64.5,49.4,29.93,NNW,344,8.0,14.0,58,0.00,,,0.00,682,Wunderground v.1.15,2013-09-23 18:35:00,
2013-09-23 14:40:00,64.1,48.5,29.93,NW,309,9.0,9.0,57,0.00,,,0.00,675,Wunderground v.1.15,2013-09-23 18:40:00,
2013-09-23 14:50:00,64.1,49.0,29.92,NW,312,9.0,9.0,58,0.00,,,0.00,656,Wunderground v.1.15,2013-09-23 18:50:00,
2013-09-23 14:55:00,64.2,48.6,29.92,NW,314,8.0,13.0,57,0.00,,,0.00,643,Wunderground v.1.15,2013-09-23 18:55:00,
2013-09-23 15:05:00,64.4,48.8,29.92,NW,310,9.0,10.0,57,0.00,,,0.00,624,Wunderground v.1.15,2013-09-23 19:05:00,
2013-09-23 15:15:00,64.7,48.6,29.92,NNW,345,8.0,9.0,56,0.00,,,0.00,601,Wunderground v.1.15,2013-09-23 19:15:00,
2013-09-23 15:25:00,64.9,49.3,29.92,WNW,302,9.0,16.0,57,0.00,,,0.00,580,Wunderground v.1.15,2013-09-23 19:25:00,
2013-09-23 15:30:00,64.8,49.2,29.92,NNW,336,10.0,10.0,57,0.00,,,0.00,568,Wunderground v.1.15,2013-09-23 19:30:00,
2013-09-23 15:35:00,64.7,49.1,29.92,NNW,340,10.0,10.0,57,0.00,,,0.00,554,Wunderground v.1.15,2013-09-23 19:35:00,
2013-09-23 15:45:00,64.5,48.9,29.92,WNW,302,10.0,10.0,57,0.00,,,0.00,529,Wunderground v.1.15,2013-09-23 19:45:00,
2013-09-23 15:50:00,64.7,50.0,29.92,NW,326,10.0,11.0,59,0.00,,,0.00,515,Wunderground v.1.15,2013-09-23 19:50:00,
2013-09-23 16:00:00,64.9,49.3,29.92,NW,326,10.0,10.0,57,0.00,,,0.00,492,Wunderground v.1.15,2013-09-23 20:00:00,
2013-09-23 16:05:00,64.8,49.7,29.92,NW,319,9.0,10.0,58,0.00,,,0.00,476,Wunderground v.1.15,2013-09-23 20:05:00,
2013-09-23 16:10:00,65.3,50.1,29.92,NNW,341,8.0,8.0,58,0.00,,,0.00,462,Wunderground v.1.15,2013-09-23 20:10:00,
2013-09-23 16:20:00,65.4,49.3,29.92,WNW,299,8.0,10.0,56,0.00,,,0.00,434,Wunderground v.1.15,2013-09-23 20:20:00,
2013-09-23 16:25:00,65.6,50.4,29.92,North,350,8.0,10.0,58,0.00,,,0.00,418,Wunderground v.1.15,2013-09-23 20:25:00,
2013-09-23 16:35:00,65.6,49.0,29.92,NW,319,8.0,10.0,55,0.00,,,0.00,388,Wunderground v.1.15,2013-09-23 20:35:00,
2013-09-23 16:45:00,65.1,49.5,29.93,WNW,293,9.0,10.0,57,0.00,,,0.00,362,Wunderground v.1.15,2013-09-23 20:45:00,
2013-09-23 16:50:00,64.7,49.1,29.92,NNW,340,9.0,9.0,57,0.00,,,0.00,346,Wunderground v.1.15,2013-09-23 20:50:00,
2013-09-23 17:00:00,65.4,49.8,29.92,NNW,336,7.0,7.0,57,0.00,,,0.00,315,Wunderground v.1.15,2013-09-23 21:00:00,
2013-09-23 17:05:00,65.2,49.6,29.93,North,355,8.0,12.0,57,0.00,,,0.00,297,Wunderground v.1.15,2013-09-23 21:05:00,
2013-09-23 17:15:00,64.9,49.8,29.93,North,1,7.0,10.0,58,0.00,,,0.00,262,Wunderground v.1.15,2013-09-23 21:15:00,
2013-09-23 17:20:00,64.8,49.7,29.93,NW,312,7.0,7.0,58,0.00,,,0.00,239,Wunderground v.1.15,2013-09-23 21:20:00,
2013-09-23 17:30:00,64.6,49.5,29.93,North,9,8.0,12.0,58,0.00,,,0.00,195,Wunderground v.1.15,2013-09-23 21:30:00,
2013-09-23 17:40:00,64.2,50.0,29.93,NNW,347,7.0,11.0,60,0.00,,,0.00,153,Wunderground v.1.15,2013-09-23 21:40:00,
2013-09-23 17:50:00,64.1,49.5,29.93,NW,312,8.0,8.0,59,0.00,,,0.00,114,Wunderground v.1.15,2013-09-23 21:50:00,
2013-09-23 17:55:00,63.9,49.3,29.94,North,349,8.0,11.0,59,0.00,,,0.00,97,Wunderground v.1.15,2013-09-23 21:55:00,
2013-09-23 18:05:00,62.8,49.1,29.94,NNW,341,8.0,10.0,61,0.00,,,0.00,26,Wunderground v.1.15,2013-09-23 22:05:00,
2013-09-23 18:15:00,62.1,48.5,29.95,NNW,336,8.0,8.0,61,0.00,,,0.00,21,Wunderground v.1.15,2013-09-23 22:15:00,
2013-09-23 18:20:00,61.9,49.2,29.95,North,360,6.0,6.0,63,0.00,,,0.00,18,Wunderground v.1.15,2013-09-23 22:20:00,
2013-09-23 18:30:00,61.4,49.1,29.95,NNW,340,5.0,5.0,64,0.00,,,0.00,12,Wunderground v.1.15,2013-09-23 22:30:00,
2013-09-23 18:40:00,60.9,48.2,29.95,NNW,345,6.0,9.0,63,0.00,,,0.00,7,Wunderground v.1.15,2013-09-23 22:40:00,
2013-09-23 18:50:00,60.6,48.4,29.95,North,360,7.0,8.0,64,0.00,,,0.00,0,Wunderground v.1.15,2013-09-23 22:50:00,
2013-09-23 19:00:00,60.4,48.2,29.95,NW,326,6.0,6.0,64,0.00,,,0.00,0,Wunderground v.1.15,2013-09-23 23:00:00,
2013-09-23 19:05:00,60.3,48.5,29.95,North,356,6.0,6.0,65,0.00,,,0.00,0,Wunderground v.1.15,2013-09-23 23:05:00,
2013-09-23 19:15:00,60.0,48.2,29.96,NNW,344,6.0,6.0,65,0.00,,,0.00,0,Wunderground v.1.15,2013-09-23 23:15:00,
2013-09-23 19:25:00,59.8,48.4,29.96,North,357,7.0,8.0,66,0.00,,,0.00,0,Wunderground v.1.15,2013-09-23 23:25:00,
2013-09-23 19:35:00,59.8,48.4,29.96,North,1,7.0,8.0,66,0.00,,,0.00,0,Wunderground v.1.15,2013-09-23 23:35:00,
2013-09-23 19:40:00,59.8,48.0,29.96,North,8,7.0,7.0,65,0.00,,,0.00,0,Wunderground v.1.15,2013-09-23 23:40:00,
2013-09-23 19:50:00,59.6,48.2,29.97,NNW,345,7.0,7.0,66,0.00,,,0.00,0,Wunderground v.1.15,2013-09-23 23:50:00,
2013-09-23 20:00:00,59.4,48.0,29.97,NNW,343,6.0,11.0,66,0.00,,,0.00,0,Wunderground v.1.15,2013-09-24 00:00:00,
2013-09-23 20:10:00,59.5,47.7,29.97,NNW,343,9.0,9.0,65,0.00,,,0.00,0,Wunderground v.1.15,2013-09-24 00:10:00,
2013-09-23 20:15:00,59.5,48.1,29.98,NNW,340,8.0,9.0,66,0.00,,,0.00,0,Wunderground v.1.15,2013-09-24 00:15:00,
2013-09-23 20:30:00,59.3,48.3,29.98,NNW,336,7.0,7.0,67,0.00,,,0.00,0,Wunderground v.1.15,2013-09-24 00:30:00,
2013-09-23 20:35:00,59.1,48.1,29.98,North,355,6.0,7.0,67,0.00,,,0.00,0,Wunderground v.1.15,2013-09-24 00:35:00,
2013-09-23 20:45:00,59.0,48.8,29.98,North,9,5.0,5.0,69,0.00,,,0.00,0,Wunderground v.1.15,2013-09-24 00:45:00,
2013-09-23 20:50:00,59.0,48.1,29.98,North,353,6.0,6.0,67,0.00,,,0.00,0,Wunderground v.1.15,2013-09-24 00:50:00,
2013-09-23 21:00:00,59.0,47.7,29.98,North,356,8.0,10.0,66,0.00,,,0.00,0,Wunderground v.1.15,2013-09-24 01:00:00,
2013-09-23 21:10:00,59.0,48.1,29.98,North,360,7.0,7.0,67,0.00,,,0.00,0,Wunderground v.1.15,2013-09-24 01:10:00,
2013-09-23 21:15:00,59.0,48.1,29.98,North,1,8.0,9.0,67,0.00,,,0.00,0,Wunderground v.1.15,2013-09-24 01:15:00,
2013-09-23 21:20:00,59.0,48.1,29.98,North,359,9.0,9.0,67,0.00,,,0.00,0,Wunderground v.1.15,2013-09-24 01:20:00,
2013-09-23 21:30:00,58.9,48.0,29.98,NNW,345,8.0,9.0,67,0.00,,,0.00,0,Wunderground v.1.15,2013-09-24 01:30:00,
2013-09-23 21:40:00,58.9,48.0,29.98,NW,326,8.0,10.0,67,0.00,,,0.00,0,Wunderground v.1.15,2013-09-24 01:40:00,
2013-09-23 21:45:00,58.8,47.9,29.98,North,4,8.0,10.0,67,0.00,,,0.00,0,Wunderground v.1.15,2013-09-24 01:45:00,
2013-09-23 21:55:00,58.8,48.3,29.99,NNW,342,7.0,8.0,68,0.00,,,0.00,0,Wunderground v.1.15,2013-09-24 01:55:00,
2013-09-23 22:05:00,58.7,47.8,29.99,North,1,8.0,12.0,67,0.00,,,0.00,0,Wunderground v.1.15,2013-09-24 02:05:00,
2013-09-23 22:15:00,58.6,48.1,30.00,NNE,17,7.0,9.0,68,0.00,,,0.00,0,Wunderground v.1.15,2013-09-24 02:15:00,
2013-09-23 22:25:00,58.4,48.3,30.00,North,360,7.0,12.0,69,0.00,,,0.00,0,Wunderground v.1.15,2013-09-24 02:25:00,
2013-09-23 22:30:00,58.3,48.2,30.00,North,6,8.0,10.0,69,0.00,,,0.00,0,Wunderground v.1.15,2013-09-24 02:30:00,
2013-09-23 22:35:00,58.4,48.3,30.00,NNW,331,10.0,10.0,69,0.00,,,0.00,0,Wunderground v.1.15,2013-09-24 02:35:00,
2013-09-23 22:45:00,58.2,47.7,30.00,NNE,20,9.0,11.0,68,0.00,,,0.00,0,Wunderground v.1.15,2013-09-24 02:45:00,
2013-09-23 22:55:00,58.0,47.9,30.00,NNE,16,10.0,12.0,69,0.00,,,0.00,0,Wunderground v.1.15,2013-09-24 02:55:00,
2013-09-23 23:00:00,57.8,48.1,30.00,NNE,17,9.0,9.0,70,0.00,,,0.00,0,Wunderground v.1.15,2013-09-24 03:00:00,
2013-09-23 23:10:00,57.6,48.3,30.00,NNE,27,8.0,11.0,71,0.00,,,0.00,0,Wunderground v.1.15,2013-09-24 03:10:00,
2013-09-23 23:20:00,57.4,48.4,30.00,North,9,7.0,7.0,72,0.00,,,0.00,0,Wunderground v.1.15,2013-09-24 03:20:00,
2013-09-23 23:25:00,57.3,48.3,30.00,North,9,7.0,10.0,72,0.00,,,0.00,0,Wunderground v.1.15,2013-09-24 03:25:00,
2013-09-23 23:30:00,57.3,48.3,30.00,North,3,9.0,9.0,72,0.00,,,0.00,0,Wunderground v.1.15,2013-09-24 03:30:00,
2013-09-23 23:40:00,56.9,48.3,30.00,North,359,7.0,7.0,73,0.00,,,0.00,0,Wunderground v.1.15,2013-09-24 03:40:00,
2013-09-23 23:50:00,56.6,48.0,30.00,North,4,7.0,7.0,73,0.00,,,0.00,0,Wunderground v.1.15,2013-09-24 03:50:00,